RH
81 84 85 83 84 82 81 84 81 79 83 86 84 82 78 76 77 78 77 77 82 86 85 88 89 88 85 88 91 86 83 84 88 86 80 80 74 71 72 67 56 46 42 41 39 37 39 40 41 44 42 36 32 30 27 26 26 24 23 22 22 21 21 21 21 22 22 23 23 23 23 24 24 25 25 25 25 24 23 20 17 15 13 13 13 13 14 19 27 30 29 28 29 31 30 29 28
81 83 83 84 83 79 80 81 77 73 77 79 77 81 76 68 72 78 78 73 77 85 80 79 84 84 80 83 82 80 81 77 77 78 76 75 71 69 69 63 52 42 39 38 37 36 36 38 39 39 39 35 32 30 27 26 26 25 23 23 23 23 23 23 23 24 24 25 24 24 25 26 26 27 28 28 28 27 26 24 21 19 16 14 13 13 13 15 21 27 30 29 29 30 30 30 30
78 80 82 84 84 82 78 77 77 73 71 71 71 77 77 70 68 69 72 68 73 82 80 79 86 85 78 76 76 73 73 69 67 69 72 71 68 70 65 56 46 37 34 34 33 35 36 36 37 37 36 34 31 30 26 25 25 25 25 24 25 25 25 25 25 25 26 26 26 26 27 28 29 31 31 31 30 30 30 28 26 24 21 18 15 14 15 15 17 22 28 32 31 29 29 30 31
74 75 77 80 81 81 78 75 74 74 74 72 67 71 77 74 68 62 65 64 62 67 72 76 82 86 79 74 74 72 69 65 59 58 68 69 65 66 56 46 39 32 30 31 32 34 35 36 36 36 35 33 31 29 26 25 25 26 25 25 26 26 26 26 26 27 28 28 28 28 28 30 31 32 31 30 30 31 32 31 30 29 27 24 21 18 17 17 17 19 23 29 32 30 29 30 31
73 72 70 71 73 73 76 75 70 70 74 76 71 71 76 72 65 62 64 63 58 56 61 69 76 83 79 73 70 67 65 63 57 48 60 70 64 60 49 39 33 28 27 27 30 32 35 36 35 35 34 33 31 29 27 25 25 25 24 24 25 25 25 25 27 28 29 29 28 28 29 30 31 31 30 29 29 30 31 30 30 30 30 30 28 26 24 22 20 19 19 23 29 32 31 31 32
68 65 65 66 65 65 71 73 67 65 64 71 74 69 73 71 64 64 65 62 58 56 56 60 69 74 69 67 66 59 56 57 57 44 51 67 61 52 42 33 29 26 25 25 27 29 33 34 32 32 32 31 30 29 27 25 24 22 21 21 22 22 23 24 26 27 28 28 28 29 29 31 32 31 31 30 30 30 30 31 31 31 32 32 32 31 31 30 28 25 22 21 23 28 31 32 32
64 67 72 67 60 53 54 59 60 59 50 56 67 60 65 74 72 68 66 62 58 58 57 57 62 62 59 61 57 51 52 48 50 44 44 58 54 42 35 29 27 24 24 24 25 28 30 30 28 28 28 28 28 28 26 23 20 18 18 18 19 20 21 22 24 25 26 28 29 29 32 34 35 34 33 32 32 33 35 36 36 35 34 33 33 33 33 33 33 31 29 26 24 23 25 29 31
71 77 77 70 63 49 38 41 44 43 37 45 58 53 56 70 73 69 63 59 59 59 57 55 56 54 52 55 49 45 50 43 41 41 40 49 47 37 30 26 24 23 22 22 23 25 27 25 23 25 27 26 27 25 21 18 16 15 15 16 17 18 20 21 22 24 26 28 30 32 35 37 39 39 37 36 36 38 40 40 39 39 39 39 39 39 38 36 34 33 33 32 30 26 24 24 26
80 81 75 70 66 55 40 34 31 33 37 47 55 51 56 64 64 65 61 57 58 57 50 48 54 52 47 48 46 43 45 39 34 36 37 42 41 34 28 23 21 20 19 19 20 21 22 21 19 21 22 21 20 19 15 14 14 15 15 17 18 19 21 22 23 24 26 29 33 35 38 40 43 44 42 41 42 43 43 41 41 42 41 41 43 44 44 42 40 38 37 37 36 33 30 28 25
82 83 81 74 66 59 47 37 28 26 32 42 48 46 51 55 52 55 57 56 56 54 44 40 51 51 46 46 44 42 39 34 32 32 34 35 35 33 28 21 17 15 16 16 16 16 17 17 16 16 16 15 14 13 13 13 14 16 18 20 20 22 23 23 24 25 28 31 34 36 39 42 45 46 46 45 46 47 45 44 45 46 44 42 43 45 43 42 42 41 42 42 41 39 38 37 34
85 89 86 80 72 64 51 42 34 31 38 41 43 43 48 50 46 48 48 51 54 54 46 35 41 45 45 48 45 43 36 30 29 30 32 31 30 29 25 20 16 13 13 14 14 13 14 16 14 13 13 12 12 13 13 14 16 18 19 20 21 23 25 25 26 27 29 32 33 36 38 40 42 43 44 46 47 47 46 46 47 47 45 42 41 41 39 39 40 40 42 42 41 41 40 39 38
94 94 91 88 79 69 54 45 45 50 55 46 36 42 52 47 48 55 47 45 45 47 47 39 41 42 43 47 45 42 34 28 27 26 28 27 24 23 21 19 16 14 12 13 14 14 15 15 12 11 12 13 14 14 15 16 16 17 17 19 22 23 25 26 27 29 30 31 32 33 33 33 33 34 36 39 40 41 42 42 42 42 41 41 41 42 42 41 40 40 41 41 39 37 36 35 35
96 93 95 93 81 74 63 54 63 67 62 49 35 43 52 43 49 56 41 41 46 44 48 49 52 48 42 43 46 46 36 29 26 22 22 21 20 19 18 16 15 14 13 13 15 17 16 12 11 12 14 15 15 16 17 17 17 16 17 20 22 22 22 24 25 27 28 28 28 28 28 27 27 28 29 31 33 35 36 36 37 38 39 41 42 44 45 44 42 41 40 41 39 36 34 33 32
89 93 95 93 85 80 73 67 77 75 58 48 42 47 45 34 43 44 35 45 52 50 50 51 57 56 47 41 43 49 45 35 28 23 20 17 17 17 16 15 14 14 14 14 15 16 14 11 12 14 16 17 17 17 18 18 19 19 20 21 21 20 19 19 20 21 22 22 23 22 22 21 21 20 20 20 21 22 22 23 23 23 25 26 28 33 37 39 40 40 39 40 39 37 33 31 28
85 94 88 91 92 85 83 80 86 79 54 46 51 49 35 30 42 41 40 50 54 52 50 49 54 57 55 46 37 40 45 40 32 27 22 18 16 15 14 13 12 13 14 14 15 14 11 11 13 16 17 17 18 18 20 20 21 22 21 20 18 17 15 15 15 15 15 15 14 13 13 11 10 8 8 8 7 7 7 8 8 7 8 9 12 15 20 25 30 34 37 39 40 39 37 33 32
86 90 83 89 94 90 94 91 88 79 51 41 53 46 28 27 35 31 28 35 42 41 39 43 51 57 60 59 47 37 40 39 33 30 25 19 15 15 14 12 12 12 14 15 16 14 11 12 15 17 18 19 20 20 21 21 22 21 19 16 14 12 11 11 11 10 10 11 10 8 8 8 7 6 5 6 7 8 8 9 9 7 6 7 8 9 10 13 18 25 32 37 41 43 43 43 43
86 87 86 86 89 92 97 94 87 79 58 40 41 37 24 19 20 19 15 16 21 27 35 38 42 51 56 61 60 48 41 34 29 28 23 19 17 17 15 12 13 14 15 17 17 15 12 13 17 19 21 21 21 21 22 22 21 18 14 11 9 8 10 12 11 10 10 12 13 12 12 14 15 14 11 10 12 15 15 13 13 11 8 8 8 8 9 9 9 13 19 25 31 33 33 33 33
89 90 91 87 87 89 88 90 89 84 74 54 39 35 29 21 18 17 14 11 11 24 34 28 26 36 46 55 59 59 50 29 19 20 17 18 18 14 13 13 13 15 17 19 16 14 12 15 19 20 21 21 20 20 21 20 18 14 10 7 6 7 11 14 13 11 10 12 15 17 19 21 22 21 19 17 16 17 15 12 11 11 9 7 7 6 10 14 8 5 8 10 13 12 12 13 12
95 93 90 87 86 87 85 89 91 88 83 70 52 42 34 24 22 21 17 12 11 19 19 12 15 22 38 49 46 52 54 30 11 10 10 15 18 11 11 14 13 15 18 19 15 13 15 17 19 20 19 20 18 16 17 17 14 9 7 5 5 8 12 12 11 9 9 10 12 15 20 23 24 22 20 19 16 13 11 10 10 11 9 7 6 5 11 16 9 5 7 6 6 6 6 6 5
100 91 85 78 76 83 87 89 92 92 82 72 62 51 40 28 26 27 22 18 13 12 10 9 12 16 30 37 31 35 43 32 11 6 9 12 16 12 11 14 13 15 19 18 15 15 18 19 19 19 18 17 15 13 14 14 11 7 6 7 6 8 12 11 9 8 8 9 9 11 16 20 21 19 18 18 15 12 11 11 11 10 10 8 7 6 8 11 8 6 7 7 7 7 7 8 8
90 79 78 70 70 77 78 78 85 89 74 62 62 61 55 38 28 28 25 24 17 11 13 16 14 17 26 27 24 26 27 23 11 7 11 10 14 15 12 14 13 16 20 17 15 18 20 19 18 18 17 14 13 12 11 11 10 7 7 9 10 9 10 9 8 8 9 10 10 11 14 16 17 18 19 20 16 15 15 13 10 8 9 8 7 6 6 6 7 7 7 8 8 8 8 8 9
74 64 68 66 71 75 69 68 79 88 75 60 59 67 70 50 30 29 29 24 17 14 21 22 16 16 24 29 28 23 17 14 10 10 11 9 14 19 15 14 14 17 20 16 16 20 20 18 17 16 13 11 11 11 11 10 10 8 8 11 12 10 8 7 7 8 10 11 13 14 15 17 19 20 20 20 19 18 17 15 11 8 8 8 7 6 6 6 6 7 7 8 8 8 8 8 9
66 58 61 62 70 80 74 68 77 84 77 65 65 74 77 57 34 28 28 23 16 17 22 22 18 13 18 35 37 26 18 12 10 11 11 10 14 19 15 13 15 17 18 14 16 21 19 18 17 14 12 11 10 11 12 11 11 9 9 12 12 9 6 6 6 8 11 14 17 19 17 18 19 20 18 17 18 17 16 14 11 10 9 8 8 8 8 7 7 8 8 8 8 9 9 9 9
60 57 56 56 69 85 82 71 72 76 73 68 73 80 74 61 43 27 26 26 18 18 21 20 20 14 14 33 40 31 23 15 10 11 12 11 14 16 12 14 17 16 16 15 16 19 19 19 17 13 13 14 13 11 12 12 11 9 10 11 9 6 6 6 6 7 10 14 19 20 18 16 18 20 18 17 17 16 15 14 12 10 10 10 12 13 12 10 9 8 8 8 8 8 8 9 9
50 53 51 54 72 87 85 72 69 74 76 72 71 73 69 67 55 34 31 29 20 19 20 17 19 17 15 29 38 31 26 19 11 11 13 13 13 12 10 17 18 14 16 14 15 19 19 19 16 14 12 14 16 13 13 13 12 11 12 10 6 5 6 6 7 7 9 11 14 17 17 15 15 18 18 16 15 16 17 17 14 11 10 11 13 13 12 9 8 7 7 7 7 7 8 8 8
42 42 39 52 73 84 87 78 72 74 80 79 74 75 73 70 57 44 44 38 25 21 19 15 18 20 18 27 35 32 30 23 13 10 14 15 13 10 9 18 18 12 14 13 14 17 16 15 13 12 10 10 13 13 13 13 12 11 11 9 6 6 6 7 8 8 9 9 10 13 15 14 13 14 15 15 14 16 19 18 17 15 12 11 10 10 8 7 6 6 6 6 7 6 6 7 7
42 34 28 45 66 74 84 85 79 77 81 82 78 78 74 63 51 50 55 46 29 19 18 17 19 23 20 23 34 38 37 26 16 12 13 16 13 7 10 18 16 11 13 13 13 14 13 12 10 8 7 7 8 9 9 9 8 7 8 8 7 6 6 7 9 9 8 8 8 9 12 14 12 11 12 14 15 17 18 17 18 18 14 11 10 9 7 6 6 6 6 6 7 7 6 6 6
45 39 30 41 61 69 74 75 79 82 82 84 78 70 63 53 46 50 55 50 38 23 19 20 21 25 19 20 32 40 40 29 24 20 16 16 11 5 10 17 14 11 12 12 12 13 11 10 8 6 5 5 6 6 6 5 5 5 6 6 6 6 6 6 8 9 8 8 8 8 10 13 12 9 9 13 16 17 16 14 13 12 10 10 11 9 7 7 7 7 7 7 7 6 6 6 6
47 46 36 39 56 68 67 64 78 85 81 82 75 63 61 56 47 48 51 52 46 28 20 23 22 22 19 20 28 37 40 31 27 27 20 15 10 6 10 13 11 11 13 12 11 11 10 9 6 5 5 5 5 5 5 5 5 5 5 5 5 6 6 6 7 7 8 8 8 9 11 12 11 8 8 10 12 14 15 15 13 12 11 11 11 10 7 7 7 7 7 7 7 6 6 6 7
49 48 39 37 46 63 67 65 75 79 79 84 74 66 71 69 53 46 48 50 47 29 18 22 21 20 21 20 24 32 34 23 20 30 29 16 10 9 9 9 9 11 12 11 11 10 9 8 5 4 5 4 5 4 5 4 4 5 5 5 5 5 5 6 6 6 6 6 8 10 11 11 10 8 7 7 7 8 10 12 13 13 12 10 10 10 8 7 7 7 7 7 7 7 6 6 6
44 41 35 35 41 58 67 68 75 77 83 86 74 72 76 70 53 42 44 49 53 40 21 18 19 19 22 20 23 28 21 8 11 29 33 18 10 12 8 7 9 10 11 10 10 10 9 7 5 5 5 4 4 4 4 4 4 4 4 5 4 5 5 5 5 5 6 6 8 11 12 12 11 8 7 6 6 6 7 7 10 13 12 11 12 12 12 12 12 13 12 12 11 10 9 8 7
42 35 32 33 39 54 59 58 67 74 80 77 71 78 79 68 52 42 41 46 59 54 26 16 19 18 20 20 23 25 11 2 13 27 30 18 11 12 7 6 10 9 9 10 10 10 8 6 5 5 5 4 4 4 4 4 4 4 4 5 4 4 4 5 5 5 6 6 8 12 14 13 11 8 6 6 6 7 8 9 12 14 15 16 16 16 17 18 18 19 19 18 18 16 15 13 11
44 37 34 33 38 52 60 57 59 65 71 70 71 80 80 67 54 46 40 39 56 58 30 15 18 16 17 19 21 23 9 0 15 29 28 16 10 10 7 6 9 9 9 10 11 10 7 6 5 5 5 4 4 4 4 4 4 4 4 5 4 5 5 5 5 5 6 5 6 10 13 13 10 7 7 7 8 10 12 13 14 15 16 16 17 17 19 19 19 20 20 20 20 20 18 16 15
35 36 39 38 36 46 58 62 64 68 71 70 73 79 78 67 57 46 35 38 59 68 44 21 16 16 15 16 20 23 13 2 9 22 23 14 9 8 6 7 8 8 9 9 9 9 8 7 6 5 5 5 4 4 4 4 4 4 4 4 4 5 5 5 5 5 5 6 6 7 9 9 7 8 9 10 10 12 13 14 14 14 14 14 15 17 18 20 20 20 20 18 18 17 15 14 14
28 34 46 44 35 38 48 57 68 73 72 72 75 77 76 73 67 50 34 38 56 68 60 35 19 17 16 16 20 23 19 8 2 10 14 10 9 7 6 8 9 8 7 8 8 7 7 7 5 5 5 5 5 4 5 4 4 4 5 4 4 5 5 5 5 5 5 6 6 6 7 8 8 9 11 11 11 11 11 12 12 12 13 14 15 17 20 22 21 19 17 14 12 11 10 10 11
32 36 51 52 41 40 44 52 65 70 72 73 73 74 75 77 74 60 49 50 49 51 62 56 32 18 18 18 18 22 24 15 4 4 8 7 6 6 6 7 8 8 6 6 6 6 6 6 5 5 5 5 4 4 5 4 5 5 4 5 4 4 5 5 5 5 6 6 6 7 8 9 9 9 10 12 12 11 11 11 11 12 13 13 14 17 20 19 16 12 10 8 7 7 8 9 8
32 36 49 55 47 42 45 54 63 66 70 72 72 73 73 74 74 71 68 68 57 45 55 66 44 19 21 23 18 22 26 18 7 4 6 5 5 4 5 6 6 6 6 5 5 4 5 4 4 4 4 5 4 4 4 4 4 4 4 4 4 5 5 5 6 6 6 7 7 8 9 9 9 9 10 11 12 15 18 16 13 12 11 10 10 12 13 12 10 9 10 12 14 15 14 13 12
26 31 41 49 49 45 48 59 67 70 72 72 70 71 72 73 74 74 70 66 61 51 47 56 52 34 27 27 22 21 23 20 9 4 6 4 3 4 4 4 5 5 5 4 4 4 4 4 4 4 4 4 4 4 4 4 4 4 4 4 4 5 5 5 6 6 7 7 8 8 9 9 8 9 10 10 12 16 19 19 14 10 9 8 9 10 11 12 14 17 22 26 28 28 26 25 24
19 29 35 43 52 53 51 60 68 71 72 71 71 73 73 74 75 72 65 59 59 58 49 46 51 50 39 31 28 22 21 23 14 4 4 4 2 3 3 3 3 3 4 3 4 3 3 3 3 3 4 4 4 4 4 4 4 4 4 4 4 4 5 5 6 6 7 7 8 8 8 9 9 9 10 11 12 12 13 12 10 9 9 11 13 15 17 19 23 27 30 32 32 32 30 31 33
10 22 28 37 54 55 52 62 67 67 69 69 72 74 71 72 76 71 61 57 60 63 58 45 41 51 51 38 32 27 22 22 17 7 3 3 3 2 2 3 2 2 3 3 3 3 3 3 3 3 3 3 3 3 3 3 3 4 4 4 4 4 4 5 6 6 7 7 8 8 8 9 9 10 12 13 13 11 10 9 8 11 13 18 22 24 25 26 28 29 29 29 28 27 29 33 39
4 12 17 31 53 54 49 62 66 65 71 72 73 75 72 73 76 71 64 61 62 65 64 51 40 48 56 47 38 36 28 20 17 11 6 4 3 3 3 2 2 3 2 2 3 3 3 2 3 3 2 3 3 3 3 3 3 3 4 4 4 4 5 5 6 6 7 7 8 8 9 9 10 12 14 15 12 9 8 9 11 14 19 24 27 27 26 26 26 26 25 25 26 29 35 41 47
3 6 10 24 50 56 50 56 64 70 79 84 82 79 77 78 77 73 70 65 63 66 64 54 44 43 53 55 46 41 36 26 18 14 12 9 5 3 3 3 3 3 3 3 2 2 3 2 2 3 3 3 2 3 3 3 3 3 3 4 4 4 5 5 6 7 7 7 8 8 9 10 11 13 16 15 11 9 10 13 16 18 22 25 25 25 25 24 24 24 25 28 34 41 47 52 56
2 5 10 22 42 53 52 56 64 70 77 82 79 74 76 79 77 75 71 67 66 66 60 55 50 39 43 55 52 43 39 33 23 17 17 16 14 9 5 3 3 3 3 2 2 3 2 3 3 3 3 3 2 3 3 3 3 3 4 4 4 5 5 6 6 7 7 8 8 9 10 12 13 15 18 15 11 12 15 17 19 21 23 26 26 26 26 25 26 26 29 35 43 53 61 64 60
2 3 11 23 33 41 50 61 64 64 67 68 65 65 70 72 72 72 71 69 67 62 55 58 60 45 37 48 53 48 41 34 27 21 20 22 23 20 13 8 4 4 4 3 4 4 4 4 4 3 3 3 3 3 3 3 3 3 4 4 5 5 5 6 7 7 8 8 8 10 12 16 19 20 20 15 13 17 20 21 23 24 26 27 28 27 26 26 28 30 34 39 46 57 67 64 54
3 3 8 21 30 35 49 62 62 63 65 63 61 61 63 65 66 69 73 72 63 55 52 60 68 55 40 43 51 50 44 35 28 25 23 25 26 22 16 10 5 5 5 4 4 4 4 4 4 4 4 3 4 4 4 3 3 4 4 4 5 5 6 6 7 7 7 8 10 12 17 23 26 25 23 17 16 21 24 25 26 27 28 28 28 27 26 27 29 31 34 39 48 56 58 52 47
3 4 5 18 35 41 50 60 61 62 65 64 62 60 61 66 70 72 74 67 55 48 50 59 67 60 46 43 47 50 46 34 27 26 25 25 24 21 15 10 7 8 9 10 12 13 12 10 9 8 7 6 4 4 5 5 4 4 5 5 5 5 6 6 6 7 7 8 12 15 22 30 32 30 25 19 20 24 26 28 29 28 29 29 29 29 29 30 31 31 34 41 49 51 48 45 46
3 3 3 15 39 50 50 55 60 62 65 63 58 60 67 71 75 75 66 55 49 49 52 57 62 61 54 49 45 44 43 36 28 25 24 23 23 21 18 16 16 18 20 24 27 28 28 26 23 20 18 17 12 7 4 4 5 5 5 5 6 6 6 7 7 7 8 9 12 18 28 35 35 34 29 21 22 27 28 30 30 30 30 31 31 32 32 33 33 34 36 43 48 47 46 44 44
3 3 3 7 29 48 49 51 60 63 60 55 52 60 70 66 60 60 53 47 51 52 52 54 57 60 59 55 49 40 38 39 34 26 22 22 24 24 22 23 25 25 27 32 35 36 36 35 34 31 29 28 27 22 14 7 5 6 6 6 6 6 6 7 7 8 8 9 13 24 33 37 35 34 30 24 24 28 30 31 31 31 32 33 33 32 32 33 35 37 41 46 47 43 41 38 35
3 3 4 3 12 30 37 38 50 56 48 44 48 57 62 53 42 46 49 45 47 51 51 52 54 58 59 57 53 43 35 36 36 31 27 25 27 28 25 25 25 26 29 33 36 38 38 36 35 35 35 34 32 31 28 21 13 9 10 10 9 8 7 7 7 8 8 9 17 29 37 38 34 31 28 25 25 29 32 32 32 32 34 35 34 32 32 34 37 40 44 44 40 34 32 31 29
3 2 3 3 3 11 17 19 28 38 35 35 47 54 56 51 40 41 46 38 36 40 38 42 49 53 57 58 55 47 36 33 35 35 33 31 29 28 26 25 25 30 36 37 36 37 37 34 31 31 33 34 32 31 30 31 28 21 18 19 19 17 15 14 12 12 11 13 22 34 39 38 33 28 27 26 26 30 32 33 33 34 36 36 34 33 33 34 34 35 35 32 28 26 26 27 27
3 4 3 3 3 3 5 8 13 25 32 34 44 53 54 51 39 32 38 38 36 30 24 35 49 52 55 57 55 50 38 32 36 36 35 35 33 31 28 25 27 35 40 40 37 34 31 30 27 24 25 27 30 30 27 28 33 34 30 28 30 30 29 28 27 26 23 22 29 37 40 39 33 28 27 27 27 31 33 33 34 37 38 36 33 33 32 29 27 26 26 26 27 27 26 27 28
4 6 5 3 3 3 2 5 9 23 39 35 34 46 49 46 38 30 38 46 43 34 28 39 52 54 55 56 55 53 42 32 31 34 36 36 35 36 32 27 29 37 40 39 36 30 26 25 22 21 21 22 25 27 28 27 29 34 37 36 37 38 38 39 41 41 36 33 35 39 42 42 37 30 27 28 29 32 34 33 36 39 38 35 34 32 28 25 25 26 27 28 29 29 29 29 30
4 4 5 3 4 4 2 4 5 14 26 19 13 25 31 34 35 32 38 44 43 41 36 39 49 52 52 55 56 55 50 41 32 31 35 36 37 40 36 31 33 37 40 37 32 26 23 22 20 19 20 21 24 26 27 27 25 29 35 39 41 42 44 45 47 48 47 44 42 42 44 45 40 32 28 29 32 34 34 35 39 40 37 35 34 31 28 27 28 28 28 28 29 31 31 32 34
5 3 4 5 6 7 4 4 4 5 9 5 3 8 12 19 25 25 31 37 37 38 36 38 48 45 38 43 51 51 52 52 41 31 33 38 41 41 37 36 37 38 39 34 29 25 21 19 18 17 18 20 22 23 24 24 24 26 30 36 40 43 46 48 49 52 53 52 49 46 46 47 42 33 29 31 33 34 35 38 41 39 37 36 34 32 31 31 31 30 30 31 33 34 35 36 37
5 5 6 7 7 7 6 5 4 4 4 3 3 4 4 7 9 10 17 25 30 35 40 49 50 38 29 36 46 47 46 49 46 39 38 42 44 40 39 43 44 41 39 36 33 28 23 19 16 15 16 16 16 17 19 21 23 25 28 32 36 39 42 46 50 54 56 56 54 50 49 49 43 33 31 34 34 34 37 41 42 40 39 37 35 34 34 34 34 35 36 37 38 38 38 39 38
5 6 6 7 6 6 7 6 5 4 4 3 2 3 3 3 3 5 8 14 25 34 41 49 43 34 39 46 51 53 44 38 41 44 47 50 48 42 43 51 51 45 43 42 38 31 25 22 19 17 15 15 15 15 16 17 20 23 25 27 29 31 32 35 40 46 53 55 51 47 50 49 39 31 33 36 34 36 40 42 41 41 41 39 36 34 35 37 39 40 42 42 41 40 38 38 39
5 5 5 4 4 5 6 6 6 7 6 5 3 2 2 2 2 6 6 10 25 36 41 48 44 43 53 55 54 58 49 37 39 46 52 56 52 45 47 54 53 49 47 44 39 32 27 25 23 21 18 16 16 15 14 14 15 17 19 20 20 20 20 21 26 32 41 45 43 42 46 41 32 32 36 36 35 39 43 43 41 42 42 39 35 35 38 42 42 43 46 47 46 42 39 38 42
5 4 5 4 3 4 4 4 5 7 8 7 5 3 2 2 3 6 9 13 26 43 50 54 54 52 56 56 54 57 54 45 46 50 53 56 54 51 52 52 48 45 43 40 35 32 30 30 29 25 21 19 18 17 15 14 13 13 15 16 15 15 14 15 18 21 27 32 34 34 32 29 31 35 36 35 39 43 45 45 44 44 42 38 37 40 44 44 44 46 50 52 49 44 42 43 47
Wind_Speed
14 14 15 14 13 13 15 14 11 11 11 12 13 14 14 14 16 16 15 15 15 14 13 14 13 12 13 14 15 16 16 16 16 14 14 14 13 14 15 16 15 14 15 15 15 16 15 15 15 14 13 12 13 13 13 13 12 12 11 10 10 10 9 9 8 8 8 8 8 8 7 7 8 8 8 8 9 9 10 10 10 10 9 9 9 9 9 9 10 10 10 10 10 11 12 12 11
12 12 13 13 12 12 14 12 10 10 10 11 13 14 14 14 15 15 15 15 16 16 15 15 14 13 15 17 16 16 15 15 15 14 14 13 11 12 14 15 14 13 14 15 15 16 15 15 14 13 12 12 12 13 13 13 13 12 12 11 10 10 9 8 8 7 7 7 7 7 7 7 7 7 8 8 9 9 10 10 9 9 9 10 9 9 9 9 9 10 10 10 10 10 11 11 11
10 9 10 12 11 11 11 11 10 9 10 11 13 14 13 13 14 13 14 15 16 16 15 15 15 13 14 16 15 14 15 14 13 14 14 13 12 12 13 13 12 12 14 15 15 15 15 14 14 13 12 11 11 12 12 12 12 12 12 11 10 9 8 8 7 7 6 6 6 6 6 7 7 7 8 8 9 9 9 9 9 9 10 10 10 10 9 9 9 9 9 9 10 10 10 10 10
9 9 10 10 9 8 8 9 9 8 11 12 12 14 13 12 12 13 14 14 14 14 15 14 15 14 11 13 14 13 14 12 10 13 14 11 13 14 12 12 11 12 13 14 15 15 15 14 13 12 12 11 11 11 12 12 12 11 11 10 9 8 7 7 6 6 6 6 6 6 6 7 7 7 8 8 9 9 8 8 9 9 10 10 10 11 11 10 9 9 8 8 9 10 10 9 9
8 8 9 9 7 5 5 7 8 9 12 12 12 14 13 11 10 12 13 12 13 13 14 13 15 13 10 11 12 12 13 12 8 11 15 12 12 14 12 11 11 11 12 13 14 15 14 13 13 12 12 11 11 11 11 11 11 10 9 9 8 7 7 6 6 6 6 6 6 7 7 7 7 8 8 8 9 9 8 8 8 9 9 9 10 11 11 11 10 9 8 7 7 8 9 9 8
8 8 9 8 6 5 4 4 5 8 12 12 12 13 12 9 10 12 11 11 11 12 13 12 14 12 9 10 8 8 10 12 9 8 15 14 11 12 12 11 11 11 11 12 13 14 14 13 12 12 11 11 11 10 10 10 9 9 8 8 7 7 6 6 6 6 6 7 7 7 7 8 8 8 8 8 9 9 8 8 8 9 9 9 9 10 10 11 10 10 9 8 7 7 8 8 8
8 9 7 5 6 6 6 5 5 7 10 12 11 12 12 10 10 11 9 8 9 10 10 10 12 9 9 8 4 6 7 9 10 9 14 15 11 11 12 12 11 11 11 12 12 13 13 12 11 11 11 10 10 10 9 9 9 8 8 8 7 7 7 7 7 7 7 7 8 8 8 8 8 8 8 8 9 9 8 8 9 9 9 9 9 10 10 9 9 9 9 9 9 8 7 7 7
8 7 4 3 4 5 6 6 7 8 10 12 12 12 13 11 9 9 7 7 8 8 8 7 8 6 7 5 2 5 5 5 9 11 13 15 12 11 11 11 11 10 10 11 12 12 12 11 11 11 10 10 10 9 9 9 9 9 9 8 8 7 7 7 7 7 7 8 8 8 8 7 8 8 8 8 8 9 8 9 9 9 9 9 10 10 10 9 9 9 9 9 9 9 8 7 6
7 5 3 4 2 3 4 5 6 9 12 12 12 11 11 10 8 8 6 7 7 6 5 5 5 3 5 5 3 5 5 5 8 11 13 14 12 10 9 9 10 11 11 11 11 11 11 10 10 10 10 10 10 9 9 9 10 9 9 9 8 8 8 8 7 8 8 8 8 8 7 7 7 7 7 7 8 8 8 8 8 9 9 9 10 10 10 9 8 8 9 9 8 8 8 8 7
7 5 4 5 4 1 2 5 6 9 13 12 10 9 8 8 7 7 6 6 6 4 4 3 3 3 4 4 4 4 5 6 8 10 11 12 11 10 9 8 8 10 11 11 10 10 10 9 9 10 10 10 10 10 10 10 10 10 10 9 9 9 9 9 9 9 8 8 8 8 8 7 7 7 7 7 7 7 7 7 7 7 7 7 8 9 9 8 7 7 8 8 8 8 8 8 8
7 4 3 5 6 5 2 4 7 12 12 10 8 7 6 7 6 6 6 5 4 3 3 2 2 2 4 5 4 4 3 4 6 9 10 10 10 10 10 8 7 8 10 11 10 10 10 9 9 10 10 11 11 11 11 11 11 11 11 10 11 11 11 10 10 9 9 8 8 8 8 8 7 7 7 7 7 7 7 7 7 7 7 7 7 7 8 7 7 6 6 7 7 8 8 8 7
6 4 2 4 7 7 4 3 8 13 11 7 7 7 5 7 6 5 5 4 2 2 2 2 1 1 2 4 4 3 3 3 4 7 9 9 8 9 9 9 8 7 9 10 11 10 10 10 10 10 11 11 11 12 12 11 11 11 11 11 12 12 12 11 11 10 10 9 9 9 9 8 8 8 8 8 8 8 8 8 8 7 7 7 7 7 7 7 7 6 6 5 6 6 6 6 6
6 4 2 3 8 7 7 8 9 10 9 7 6 5 4 6 6 4 4 3 2 2 2 2 2 1 1 3 4 4 2 3 4 4 6 8 8 8 8 9 9 8 8 10 11 11 11 12 12 12 12 12 12 12 12 12 12 12 12 12 13 13 13 13 12 12 11 11 11 10 10 10 9 10 10 10 10 10 10 10 9 9 9 9 9 9 9 9 8 7 7 6 5 5 5 5 5
6 2 1 2 6 6 8 10 10 6 8 9 6 5 5 7 7 5 5 3 3 3 2 2 1 2 1 2 4 5 3 3 4 3 4 6 7 8 8 8 9 9 9 10 11 12 12 13 13 13 13 13 13 13 12 12 13 13 13 13 13 13 13 13 13 13 12 12 12 12 12 12 12 12 12 12 12 12 12 12 12 13 12 13 13 13 12 11 10 10 8 7 7 6 5 5 5
5 3 2 1 3 6 6 7 9 7 7 9 7 6 7 7 7 6 5 4 4 3 2 2 2 2 1 1 1 4 4 4 4 3 3 5 6 7 8 8 8 9 10 10 11 12 13 14 14 14 14 13 13 13 13 13 13 13 14 14 14 14 15 15 14 14 14 14 14 14 14 15 15 15 15 15 15 15 14 14 15 15 15 16 16 16 15 14 13 12 11 9 8 8 7 7 7
5 4 3 3 1 4 3 4 4 5 7 8 5 4 5 5 7 5 4 5 5 4 3 2 2 2 2 2 2 1 4 5 5 5 4 5 6 7 8 8 9 9 10 10 11 12 13 14 14 14 14 13 13 13 14 14 14 14 14 15 15 15 16 15 15 15 15 16 16 16 16 16 16 16 16 16 16 16 15 16 16 17 17 18 18 17 17 16 15 15 13 11 10 10 9 9 9
6 5 3 5 4 2 2 4 2 3 6 6 6 5 6 6 7 6 5 5 5 5 2 1 2 2 2 3 3 2 3 5 5 5 5 5 7 8 8 8 9 10 10 10 11 12 13 14 15 14 13 13 13 13 14 14 14 14 15 15 16 16 16 16 16 16 16 16 16 16 16 16 16 17 16 16 16 16 15 16 17 17 18 19 19 18 18 18 17 18 17 15 13 13 12 12 11
5 5 4 5 4 2 3 4 1 3 6 6 8 8 8 8 8 7 6 6 6 5 2 1 2 1 2 3 3 3 3 4 5 5 4 5 8 9 9 9 10 10 11 11 11 12 14 15 14 14 14 14 14 14 15 15 15 15 15 15 16 16 16 16 16 16 16 16 16 16 16 16 16 16 16 16 15 15 15 16 17 17 18 19 18 18 18 19 19 19 18 17 16 15 14 14 13
5 6 7 6 5 5 7 7 4 5 7 7 7 5 6 7 8 7 6 6 5 3 5 4 2 2 2 2 3 3 3 4 5 4 4 6 8 9 10 10 10 10 12 12 12 13 14 15 15 14 15 15 14 14 15 15 16 16 16 15 15 15 15 15 16 16 17 17 16 16 16 16 16 16 16 15 15 15 16 16 16 17 17 17 17 17 17 18 19 18 18 17 16 15 15 14 14
8 9 8 6 7 8 11 12 10 6 8 9 5 3 6 7 7 6 6 6 3 3 5 4 2 2 2 2 3 3 3 3 5 4 5 6 8 9 10 12 12 11 12 13 14 14 14 15 15 15 15 15 14 14 15 15 16 15 15 14 14 14 14 15 16 16 16 16 16 16 16 16 16 16 16 15 15 15 15 15 16 16 16 16 16 16 16 16 17 16 16 16 15 14 14 14 14
10 9 9 9 9 9 10 16 16 10 9 10 8 7 9 10 7 6 7 5 4 4 3 2 2 1 2 3 3 3 2 3 5 5 6 6 8 9 9 10 12 12 13 13 15 15 15 16 16 16 15 15 14 14 14 15 15 15 14 14 14 14 14 15 16 16 16 16 16 16 15 15 15 15 15 14 14 15 15 14 15 15 14 14 14 14 14 14 14 14 14 13 13 12 12 12 12
14 10 8 11 12 11 9 16 20 15 11 11 11 10 10 11 8 8 8 4 3 1 1 3 3 2 1 3 4 3 2 2 5 6 7 8 9 10 10 11 11 13 14 14 15 16 16 16 15 15 15 15 14 14 14 14 14 14 14 13 13 13 14 14 15 15 15 15 15 15 15 15 14 14 14 13 14 14 14 13 13 13 13 13 13 13 13 13 12 12 12 12 11 11 11 11 11
18 15 9 9 12 11 10 15 20 20 16 13 13 9 9 12 10 8 7 4 4 2 3 4 5 4 3 2 3 3 2 2 5 7 9 9 11 12 12 13 13 14 15 15 16 16 17 16 15 15 15 14 14 13 13 13 13 13 13 13 13 13 13 14 14 14 14 14 13 13 14 14 13 13 13 13 13 13 13 13 12 12 12 11 11 11 11 12 11 11 10 10 10 9 9 10 10
18 17 11 7 12 10 10 12 17 22 20 15 10 8 10 12 13 10 10 6 7 6 5 4 5 5 3 1 2 3 2 1 4 7 8 9 11 12 13 14 14 15 16 16 16 16 16 16 15 14 14 13 13 13 13 13 12 12 13 12 12 13 13 13 13 13 13 12 12 12 12 12 12 12 12 12 12 13 13 12 12 12 11 11 11 11 11 11 10 10 10 10 10 9 9 9 9
18 18 12 7 11 8 9 11 14 19 21 16 10 8 10 12 14 12 10 8 7 7 6 5 4 5 4 2 1 2 2 1 4 7 8 8 10 11 12 14 15 16 17 17 16 16 15 15 15 14 13 13 13 13 13 13 12 12 12 12 12 12 12 12 12 11 11 11 11 11 11 11 11 11 11 11 12 12 12 11 12 11 11 11 11 11 11 10 10 10 10 11 10 10 10 10 9
16 18 15 8 7 1 5 10 12 16 20 17 12 9 11 13 12 11 13 10 7 7 7 6 5 5 5 3 2 2 2 1 3 7 8 9 9 11 13 14 15 16 17 17 17 16 15 15 14 14 13 13 13 13 13 12 12 12 12 12 12 12 11 11 10 10 9 10 10 10 9 9 10 10 10 10 11 11 11 10 10 10 10 10 10 10 10 10 10 10 11 11 11 10 10 10 10
15 16 13 10 9 7 5 8 11 16 20 19 16 13 13 13 10 10 14 10 7 8 8 7 7 6 6 3 2 2 2 1 2 6 9 9 9 11 13 14 15 16 18 17 17 16 15 14 13 13 13 14 14 14 14 13 12 12 13 12 12 11 10 10 9 8 8 8 8 8 8 8 8 9 9 10 9 9 10 10 9 8 9 9 9 9 9 9 9 10 10 10 10 10 10 10 10
16 15 12 11 12 9 8 8 9 16 19 21 21 17 14 13 9 8 10 8 7 10 9 7 7 6 6 4 2 1 1 1 2 6 8 10 11 12 14 15 16 17 18 18 17 16 15 14 13 13 13 14 14 14 14 13 12 13 13 12 12 11 10 9 8 7 7 8 8 8 8 7 7 8 9 9 9 9 9 9 8 8 8 8 8 8 8 8 8 9 9 9 9 9 10 10 10
17 15 13 12 14 13 11 8 9 16 18 21 23 19 18 16 12 8 7 6 6 10 9 7 6 6 6 5 3 1 0 1 3 6 7 9 12 13 15 16 18 19 18 18 17 16 15 13 13 13 14 14 14 14 13 13 12 12 12 11 11 11 10 9 8 7 7 7 7 7 8 8 7 7 8 8 8 8 8 8 8 7 8 8 7 7 7 7 8 8 8 8 9 9 9 9 9
18 16 14 14 17 18 15 10 9 14 17 22 22 20 22 20 15 9 6 5 4 8 9 6 6 6 6 5 4 3 2 2 3 6 8 9 12 14 15 17 19 19 18 17 16 15 15 14 13 13 13 14 14 13 12 12 12 11 11 10 10 10 9 8 7 7 7 7 7 7 7 8 8 7 7 7 7 7 7 7 7 7 7 7 7 6 7 7 8 8 9 9 9 10 9 9 9
20 17 14 14 16 20 19 16 12 13 18 23 20 18 22 22 17 11 8 5 3 7 9 7 6 6 6 5 5 4 2 2 3 7 9 11 13 15 16 18 19 19 18 17 16 15 14 14 13 13 13 13 13 12 12 11 11 10 10 9 9 8 8 8 7 6 7 7 7 7 7 7 7 7 6 6 6 6 6 6 7 7 6 6 6 6 7 8 8 9 9 9 10 11 11 10 10
19 16 12 11 14 18 19 16 14 15 19 24 21 19 22 22 19 14 10 7 3 5 8 7 6 5 5 5 5 4 3 1 3 6 10 13 14 15 16 18 20 19 18 17 16 15 14 13 13 13 12 12 12 12 11 11 10 10 9 8 8 7 7 7 7 6 6 7 6 7 7 7 6 6 6 5 5 6 6 6 7 6 6 6 7 8 8 9 10 10 10 10 11 12 12 12 12
21 17 10 8 12 15 16 13 13 16 20 25 22 20 22 22 20 16 12 8 5 6 7 8 6 4 5 5 4 4 2 1 4 6 10 14 15 16 17 18 19 18 17 16 15 15 14 13 13 12 12 11 11 11 11 11 10 10 9 8 7 6 6 6 6 6 6 6 6 6 7 6 5 5 5 5 6 6 6 7 7 7 7 8 9 10 10 11 11 11 11 11 12 13 13 13 13
21 17 11 11 14 15 17 15 15 18 19 19 17 17 20 23 22 18 12 7 6 6 7 9 7 5 5 5 4 4 3 2 4 9 13 14 15 15 17 18 18 17 16 15 15 14 13 13 13 12 12 11 11 10 10 10 10 9 8 7 7 6 5 5 5 6 6 6 6 6 6 5 5 5 5 5 5 6 6 7 8 9 9 10 11 11 12 12 12 12 13 13 14 14 14 13 13
18 15 12 13 16 15 16 17 17 17 16 15 14 17 21 24 24 20 15 10 8 6 7 9 9 6 5 5 5 5 4 3 4 9 14 15 14 15 16 17 17 16 15 14 13 13 13 12 12 11 11 10 10 10 9 9 8 8 7 7 6 6 6 5 5 6 7 6 6 6 6 5 5 5 5 5 5 6 7 8 9 10 11 12 12 12 12 12 12 12 13 14 15 15 14 14 14
19 17 15 16 18 16 15 17 16 14 14 16 16 18 22 24 23 19 15 13 11 9 8 8 9 8 5 5 5 5 6 4 4 7 13 14 14 15 16 17 17 16 14 13 13 12 12 12 11 11 10 10 9 9 8 7 7 7 7 6 6 6 6 6 5 5 6 5 5 5 5 5 5 4 5 6 7 8 9 10 10 11 12 12 12 12 12 12 12 12 12 13 14 15 15 15 15
22 20 20 19 20 20 18 16 13 11 13 16 17 19 22 25 24 20 15 15 13 10 8 7 8 9 7 6 5 6 6 6 5 6 10 13 14 14 16 17 17 15 14 13 12 12 12 11 11 11 10 9 9 8 7 7 7 7 6 6 6 6 5 5 4 4 5 4 4 4 4 4 4 5 6 7 9 10 10 11 11 12 12 12 12 11 11 11 11 12 12 13 13 14 14 15 15
25 23 22 21 20 22 22 20 17 16 16 16 17 18 22 25 27 26 21 16 13 11 9 7 7 8 9 8 7 7 7 6 6 7 9 11 13 13 14 15 16 15 14 13 13 12 11 11 11 10 10 9 9 8 7 7 7 6 6 6 5 6 5 5 4 3 3 3 2 3 3 3 4 6 7 8 10 11 11 11 11 11 11 11 10 10 11 11 12 12 12 13 14 14 15 16 16
27 25 23 21 20 22 24 24 24 23 21 21 19 18 22 26 28 29 24 17 13 12 10 9 8 9 10 10 9 9 7 7 8 9 10 11 13 14 14 14 14 14 14 13 12 11 11 11 11 11 10 10 9 8 7 7 7 6 6 6 5 5 5 4 4 2 2 1 1 1 2 3 5 6 8 9 10 11 11 11 10 10 10 10 10 11 11 11 12 12 13 14 15 16 17 18 18
28 29 27 23 23 24 22 23 23 22 19 18 19 20 25 29 31 30 24 19 15 13 11 11 9 8 11 12 11 9 8 8 9 10 11 13 14 14 15 15 14 13 12 12 11 11 11 11 11 11 10 10 9 9 8 7 7 7 6 6 6 6 5 4 4 3 2 1 1 2 3 4 6 7 8 9 10 10 10 10 9 9 9 10 11 11 11 12 12 13 14 15 17 18 18 19 20
28 29 28 25 26 25 20 21 21 18 15 15 19 23 28 32 33 29 25 22 17 14 14 13 10 8 11 13 11 9 9 9 10 9 10 12 13 14 15 15 14 12 12 12 12 12 12 12 11 11 10 10 10 9 8 8 7 7 7 7 7 6 5 4 4 3 2 2 2 3 4 5 7 8 9 9 10 9 9 8 8 8 9 10 11 11 12 13 13 14 15 16 17 18 19 19 20
28 29 27 25 29 26 20 20 20 18 19 23 25 27 31 33 33 30 26 22 18 15 14 13 12 10 10 12 11 9 10 11 10 9 9 10 11 12 13 13 13 13 14 14 13 13 12 12 11 11 11 10 10 9 9 8 8 8 7 8 7 6 5 5 4 4 3 2 3 4 5 6 7 8 9 9 9 8 7 7 8 9 9 10 11 12 13 14 14 15 16 17 17 17 18 19 20
28 26 26 27 31 30 24 23 24 21 23 25 27 28 31 34 33 31 26 22 19 17 14 14 15 13 10 10 11 10 10 12 11 9 10 9 9 10 10 11 12 14 14 13 12 12 12 12 12 12 12 11 10 9 8 8 8 8 8 8 8 6 6 5 5 4 4 3 4 5 6 7 8 8 8 8 8 6 6 7 8 9 10 11 12 13 14 14 15 16 17 18 18 17 18 18 20
26 22 27 30 32 32 29 29 30 26 23 23 24 24 27 32 32 29 25 22 22 19 14 14 16 15 10 9 10 11 11 13 12 10 11 11 10 10 10 9 10 11 11 10 10 11 11 12 12 12 12 11 10 9 8 9 9 8 8 8 8 7 6 5 5 4 4 4 4 6 7 8 9 9 8 8 7 6 6 8 9 10 11 11 12 13 14 15 16 16 17 18 19 19 19 19 20
24 22 29 32 31 31 31 33 34 29 26 27 26 24 27 31 29 27 27 27 25 20 14 15 16 15 12 9 10 11 12 13 13 12 11 11 11 11 11 10 9 8 8 8 9 9 10 10 10 10 11 11 11 10 9 10 10 9 8 9 9 8 6 6 5 5 5 5 5 6 8 9 9 9 8 8 7 6 7 8 9 10 12 12 13 14 15 16 17 17 18 19 19 20 20 20 21
24 25 30 31 32 32 33 36 36 33 34 34 29 27 29 29 29 30 30 30 26 19 15 16 16 16 14 11 11 11 13 14 14 12 12 11 11 12 12 10 9 7 8 9 9 9 10 10 10 10 11 11 12 12 11 11 10 9 9 10 10 8 7 6 6 6 6 7 7 7 9 9 9 9 8 8 7 7 8 8 10 11 12 13 13 14 16 17 17 17 18 19 19 20 21 22 23
27 29 31 32 36 36 37 39 38 39 43 40 32 28 30 32 33 35 34 30 24 19 17 16 16 17 15 14 14 14 15 16 16 15 13 12 12 13 13 11 10 10 10 10 10 11 12 12 12 12 12 12 12 13 13 12 11 11 11 11 10 9 8 8 8 8 8 9 9 8 9 9 9 9 9 8 8 8 8 9 11 12 12 12 14 15 16 17 17 17 17 17 18 20 22 23 23
29 32 33 35 39 41 42 42 43 46 49 43 34 29 33 37 37 35 33 28 22 21 20 17 15 15 15 14 16 17 17 17 18 17 16 15 15 15 14 14 14 13 12 12 13 14 14 14 13 13 13 13 14 14 14 14 13 12 12 12 12 11 10 10 10 9 9 10 10 9 10 10 10 10 9 9 9 8 9 10 11 12 12 13 15 16 17 18 17 17 16 16 18 20 22 23 24
30 34 36 38 40 44 46 46 48 51 49 43 36 34 38 42 38 33 32 27 23 22 20 16 14 14 15 15 16 18 19 19 18 18 17 16 17 17 16 17 16 15 14 15 16 16 16 16 15 15 15 16 16 16 16 15 14 14 14 14 14 13 12 11 11 11 11 11 11 10 10 11 11 10 10 10 10 9 9 10 11 11 12 14 16 17 18 18 18 17 16 17 19 21 23 24 26
29 33 37 40 41 45 47 47 49 50 48 42 38 38 43 44 38 34 32 29 26 24 20 15 14 14 14 15 17 19 20 19 19 19 19 18 19 19 18 19 17 16 17 18 18 18 17 17 17 17 18 19 19 18 18 18 17 17 16 16 16 15 14 13 13 12 12 12 12 11 11 11 11 11 10 10 11 11 10 10 10 11 13 15 16 17 18 18 18 18 18 20 22 23 24 25 27
27 29 34 39 41 43 45 45 47 48 47 44 41 43 48 46 40 35 31 28 26 26 22 16 14 14 13 15 18 20 21 20 20 20 21 21 21 20 20 20 19 18 20 20 20 19 18 18 19 20 20 21 21 20 19 19 20 20 19 18 18 17 16 15 14 14 14 13 13 12 12 12 12 12 11 10 11 12 11 10 10 11 13 15 16 17 17 17 18 19 20 22 24 25 26 27 28
27 27 33 38 38 41 43 45 46 47 49 47 45 48 49 45 41 36 31 30 28 28 27 22 18 16 16 18 19 19 20 22 22 21 22 24 23 22 23 22 21 21 22 21 20 19 18 18 19 20 21 21 22 22 21 20 21 22 22 21 21 20 18 17 16 16 15 15 14 14 13 13 13 13 12 11 11 11 12 12 11 11 13 14 15 16 16 17 19 20 22 24 26 27 27 28 29
28 29 33 32 31 36 42 44 44 46 51 49 47 49 48 44 42 38 34 33 31 30 31 29 23 20 20 21 19 17 17 21 24 23 23 23 23 24 25 23 22 23 22 20 19 19 18 19 19 19 20 20 21 22 22 22 23 23 23 23 23 22 21 20 19 19 18 16 15 15 14 14 13 13 12 12 11 11 12 12 12 12 13 13 14 16 17 19 21 22 24 25 26 27 28 28 28
31 32 30 28 28 33 39 43 44 46 50 50 46 47 47 44 43 39 36 35 31 28 28 28 25 24 24 21 18 16 14 17 23 24 23 22 23 25 24 23 22 23 22 20 19 19 18 18 18 18 19 19 21 23 24 25 24 24 24 25 24 24 23 23 22 21 20 18 16 16 15 14 14 13 12 12 12 11 11 12 12 13 13 13 14 16 18 20 22 24 25 26 26 27 27 27 27
33 31 29 29 31 33 37 42 44 45 48 48 45 45 46 44 43 39 35 34 29 24 25 28 28 27 24 19 15 14 14 15 19 21 21 22 24 25 23 21 22 24 23 20 19 18 17 17 18 18 19 20 21 23 24 25 25 25 25 26 25 25 24 24 24 23 22 20 18 18 16 15 14 13 12 13 12 11 11 12 13 14 13 14 15 18 20 22 23 24 25 26 26 26 26 26 26
33 33 33 33 34 34 35 37 40 41 44 44 41 42 43 42 41 39 36 33 26 22 25 29 29 23 18 14 11 12 14 13 16 18 20 22 24 24 23 22 24 24 22 20 18 17 16 17 18 19 20 20 21 21 22 24 24 25 25 26 25 25 25 25 25 24 23 22 20 18 16 16 15 13 13 13 12 11 12 13 14 15 15 16 17 19 21 22 23 24 26 27 27 27 26 26 25
36 36 37 36 35 36 36 37 38 39 41 40 38 39 37 36 38 38 37 33 25 20 24 29 27 21 17 15 12 13 15 13 13 15 17 21 23 23 22 23 24 24 22 20 18 16 16 17 18 19 20 20 20 20 21 22 23 24 24 24 23 23 23 23 23 23 22 22 20 18 16 16 15 14 13 13 12 12 13 14 14 15 16 18 19 20 21 22 24 26 27 29 29 28 27 25 25
36 36 36 35 35 35 37 39 39 40 41 39 36 35 32 31 34 35 36 33 25 21 24 28 27 24 21 18 14 15 15 13 13 13 13 18 21 22 23 24 25 24 22 19 17 16 16 16 17 19 19 19 19 20 21 21 22 22 22 22 22 21 21 20 20 20 20 20 19 18 16 15 15 15 14 13 12 12 13 14 14 15 17 19 20 20 20 22 25 27 29 30 30 29 28 26 25
Wind_Direction
93 91 88 84 79 79 78 80 85 84 83 79 75 71 63 60 63 62 60 62 65 70 74 74 73 74 77 83 97 101 97 100 104 104 96 91 94 101 109 111 108 101 101 105 104 104 104 105 107 110 113 114 114 113 112 114 116 117 119 118 117 116 117 117 117 118 116 113 111 111 109 108 107 104 102 101 96 89 83 80 80 82 84 87 89 91 95 103 107 105 102 104 105 105 102 99 97
94 91 88 85 81 81 79 80 87 87 85 80 76 71 62 60 66 70 67 65 66 71 76 80 78 77 84 89 93 96 98 100 107 108 101 99 97 102 112 113 109 106 108 110 108 106 104 105 108 111 112 113 114 114 115 117 118 121 122 120 120 120 121 120 119 118 113 111 112 114 113 112 109 106 105 102 96 89 85 83 81 80 79 82 84 87 89 95 103 104 102 102 104 106 104 102 98
95 88 87 83 77 80 82 77 77 83 83 77 77 73 62 59 64 70 70 68 72 77 83 86 84 82 88 92 88 90 98 102 108 108 105 107 106 110 115 112 111 112 114 113 109 107 107 108 110 111 111 114 115 116 116 118 120 122 123 123 123 126 126 123 120 117 115 117 119 120 118 114 110 108 105 99 94 90 86 84 82 78 76 76 79 82 84 87 92 98 100 101 102 104 103 101 97
97 88 88 84 77 81 83 73 72 83 81 71 73 76 66 60 63 65 64 63 69 77 82 86 87 83 83 89 91 94 99 101 111 113 109 111 116 119 117 112 113 114 113 112 110 110 111 112 113 113 114 116 117 116 115 116 120 123 125 126 128 131 128 125 123 122 123 125 125 122 117 112 109 105 100 96 92 89 87 85 83 78 75 73 74 76 79 80 80 85 92 97 97 98 99 97 94
111 98 86 78 74 79 83 74 75 84 84 72 66 73 70 61 60 59 56 55 57 64 71 77 82 81 77 80 90 101 104 107 118 119 114 117 123 123 119 115 114 114 113 111 113 114 116 116 116 116 117 118 118 117 116 116 120 125 128 129 133 134 131 129 130 130 130 129 125 118 112 108 103 98 94 91 90 88 86 84 82 79 76 74 73 73 73 74 73 74 78 85 89 90 92 92 91
114 97 76 73 77 83 98 88 74 77 81 78 67 67 68 59 56 55 50 52 53 58 67 73 80 82 78 74 83 100 107 117 128 126 120 125 131 127 122 119 118 117 116 115 116 118 119 119 118 118 118 119 120 120 118 119 122 128 131 132 135 133 133 133 134 135 134 129 121 112 107 102 95 90 86 85 85 85 83 82 80 79 78 76 75 72 70 70 71 70 69 72 76 81 84 85 85
96 80 69 84 98 105 116 112 86 73 70 72 69 63 62 56 55 56 51 55 55 60 69 78 88 90 83 78 84 96 105 125 133 134 126 129 137 133 127 123 123 123 121 119 119 119 120 120 120 118 117 119 121 122 121 123 126 129 130 131 131 131 132 133 136 136 132 124 115 108 102 95 88 83 80 79 80 80 79 77 75 75 76 75 74 72 69 67 67 68 67 66 67 70 72 76 76
89 79 69 80 104 122 124 120 99 74 63 63 60 55 58 55 53 59 51 51 55 60 68 78 90 94 95 98 106 102 115 135 134 135 129 132 140 138 132 130 128 127 123 121 120 120 120 121 120 118 119 121 123 124 124 125 127 127 127 127 127 128 128 131 133 130 124 116 109 103 96 89 83 79 78 77 76 75 72 70 70 70 70 70 69 66 64 61 61 64 64 63 63 64 63 64 65
92 82 54 29 57 143 145 140 114 78 65 61 55 48 57 61 54 56 48 48 56 55 55 66 80 89 104 107 121 119 133 144 133 131 130 134 140 139 136 137 134 128 123 121 121 120 119 120 119 120 122 124 125 125 124 123 122 122 123 123 123 120 120 123 123 118 113 108 102 96 91 86 81 82 83 81 77 73 71 69 67 66 65 64 62 57 52 49 52 56 59 61 61 62 62 60 58
101 79 37 9 13 13 180 152 124 85 65 53 51 42 57 69 53 52 49 49 54 51 46 51 77 96 110 107 124 131 147 154 139 132 133 138 141 142 138 138 138 131 127 124 123 120 119 119 120 122 122 123 124 123 122 119 119 120 120 117 113 110 110 110 108 107 105 102 98 94 91 88 87 89 90 89 85 79 77 72 66 62 59 57 51 43 39 40 44 47 51 56 58 60 63 62 59
106 82 32 357 348 341 317 148 110 85 66 41 35 30 53 64 43 42 45 45 48 50 42 34 82 112 125 119 127 135 161 170 152 141 140 144 145 146 142 139 141 137 133 130 127 123 121 119 119 120 120 121 121 120 119 118 120 119 116 111 106 104 102 102 104 105 104 102 99 96 95 94 94 95 95 93 90 87 82 74 67 62 58 53 44 35 36 42 47 46 47 50 52 53 55 58 59
118 116 72 345 330 341 360 90 97 84 73 46 25 17 46 56 42 40 34 30 30 50 41 8 56 96 137 130 128 136 172 181 167 152 145 148 150 152 150 145 146 143 137 133 129 127 125 121 119 118 117 118 118 118 118 119 120 118 113 107 102 101 101 103 106 106 105 104 101 99 96 96 94 91 89 87 84 80 75 70 65 62 59 54 50 50 50 54 58 59 60 58 54 49 44 45 48
142 134 99 333 328 350 17 41 76 82 78 69 35 12 24 47 56 53 23 8 358 16 23 4 14 355 180 147 133 135 179 192 184 167 149 154 158 158 157 153 151 147 141 135 131 130 127 124 121 119 117 117 117 117 119 120 119 115 111 105 102 102 105 106 107 107 106 104 101 98 96 93 90 86 83 81 79 76 73 71 69 67 64 61 61 62 62 63 66 67 68 68 67 58 45 37 35
154 172 250 333 330 353 24 38 49 46 60 63 44 29 10 27 48 31 5 352 4 13 1 345 314 304 249 177 149 150 181 203 195 189 168 168 170 165 163 162 155 148 144 137 133 132 128 125 122 119 117 116 117 119 120 119 117 113 109 105 105 107 107 106 105 105 104 102 99 96 94 91 88 85 83 81 80 78 76 75 74 73 70 67 64 64 64 64 65 67 68 70 71 69 60 51 45
140 200 238 34 337 8 25 31 32 5 22 40 32 33 10 22 49 31 7 346 350 355 321 311 303 303 273 248 172 159 174 204 213 223 212 191 183 172 167 166 157 148 145 139 134 131 128 125 121 119 117 118 119 121 121 118 114 111 110 109 109 108 106 105 104 103 101 98 95 93 91 89 88 85 82 81 79 76 75 74 73 72 72 70 69 68 67 65 64 65 67 69 72 72 70 64 60
133 154 149 135 105 41 16 347 20 347 0 31 35 35 7 30 63 50 17 350 336 318 300 295 283 277 287 302 300 183 176 204 221 231 228 208 191 176 169 167 157 148 144 140 135 132 128 126 123 121 119 120 122 122 120 117 115 114 113 112 110 107 105 104 102 100 98 96 94 92 90 89 88 86 84 82 79 77 75 74 73 71 72 72 72 72 72 70 69 70 71 71 74 76 75 72 69
153 162 168 162 146 95 6 337 360 327 343 19 18 8 10 25 47 43 18 4 346 326 331 275 250 246 301 302 291 272 213 216 223 229 231 214 191 175 169 166 156 147 143 140 136 133 130 128 126 125 123 124 124 121 119 118 118 118 115 112 109 107 106 104 102 99 97 95 94 94 93 92 89 88 85 84 82 81 79 78 76 75 74 74 73 74 74 73 73 74 75 74 74 76 76 75 74
169 194 188 158 127 91 29 358 17 351 330 352 4 352 0 13 25 30 16 7 4 346 341 291 277 289 303 291 281 277 257 242 230 224 223 206 190 179 171 166 158 149 145 141 137 136 134 133 131 130 128 127 124 120 118 120 120 119 114 111 110 109 108 107 104 101 98 96 95 96 96 95 92 89 87 86 85 84 82 80 78 77 76 75 75 75 76 77 76 76 76 75 74 74 73 73 73
156 175 165 134 92 69 41 2 342 356 332 337 359 338 338 3 22 21 10 12 16 326 298 316 333 315 294 284 286 281 270 263 245 221 197 197 195 187 175 165 158 153 151 145 140 139 137 137 135 133 130 127 123 120 119 121 120 117 114 112 112 111 110 108 105 102 100 97 96 95 95 95 93 91 89 87 85 83 81 79 78 77 76 76 76 75 75 77 78 77 77 76 73 72 71 70 70
148 160 154 119 79 70 52 14 346 340 335 335 346 339 335 358 20 7 9 18 352 270 287 325 354 316 303 290 304 298 272 263 252 216 179 195 201 193 181 169 161 156 154 149 143 142 141 139 136 134 130 127 122 120 120 121 119 118 116 116 116 114 112 109 106 104 101 99 96 93 92 92 93 92 91 89 86 83 81 79 77 76 76 77 77 75 72 72 75 76 77 77 75 73 70 68 66
168 167 144 112 73 58 51 17 354 330 326 334 341 347 335 339 3 5 12 7 283 257 282 329 345 317 308 305 320 318 281 249 244 210 178 192 200 194 185 175 163 158 154 152 147 143 142 139 137 134 130 126 123 121 122 122 121 120 121 120 120 117 113 110 107 105 102 99 95 91 89 89 90 91 90 89 86 83 81 78 76 77 77 77 77 76 73 70 70 71 71 71 72 70 69 68 66
201 203 156 115 69 42 36 19 3 340 325 333 337 338 325 325 353 19 17 351 276 256 334 340 338 335 332 323 335 330 304 232 228 210 184 187 196 190 180 173 164 159 155 152 149 143 141 139 137 133 130 127 125 124 123 122 123 123 124 123 120 117 114 111 108 106 102 99 95 91 87 85 85 86 86 85 84 83 81 79 77 77 78 77 77 77 75 72 67 65 64 62 62 61 61 59 59
221 225 193 127 77 37 16 24 11 345 333 336 334 334 326 322 340 23 44 6 322 3 12 346 336 344 352 327 338 336 320 229 213 206 189 184 193 192 181 172 164 161 157 152 149 144 141 138 136 133 130 130 128 127 125 124 125 124 125 124 120 117 114 112 110 107 103 99 96 90 86 82 81 81 82 81 82 83 82 82 81 80 79 79 78 76 73 72 69 65 63 61 58 56 55 52 49
229 224 204 120 74 35 2 23 12 340 332 338 329 324 327 325 332 4 46 22 335 351 1 344 330 344 359 330 327 332 325 250 206 203 196 187 193 195 184 172 164 162 158 153 150 145 142 139 137 135 133 133 133 131 128 126 125 124 124 124 122 117 114 112 109 106 102 99 95 90 86 83 81 81 81 80 80 80 81 83 83 81 80 79 77 75 73 72 71 67 64 61 56 51 50 50 48
222 214 199 109 67 29 348 360 359 330 324 331 321 307 316 327 329 344 22 18 340 342 342 334 337 348 1 4 321 322 337 277 196 196 197 193 198 198 184 171 165 163 159 154 150 146 144 142 140 139 138 137 137 135 131 130 128 126 125 125 122 117 114 110 107 105 101 96 92 89 87 85 83 82 81 80 80 81 82 83 82 80 77 74 71 70 69 67 64 60 55 53 50 42 39 40 40
226 214 200 140 107 93 308 323 333 320 314 319 317 306 307 317 321 339 4 3 334 331 330 333 354 359 357 360 320 324 349 347 183 188 191 191 195 195 183 172 168 164 159 155 152 149 147 145 144 142 141 140 139 137 134 135 133 129 125 123 121 117 113 110 108 105 99 93 88 87 87 86 83 83 83 83 83 86 85 83 82 81 76 71 67 63 61 57 53 49 44 42 40 34 30 29 25
239 233 220 180 173 182 216 274 297 300 301 306 310 307 305 308 316 347 360 355 325 320 327 339 358 1 349 348 326 330 7 22 160 180 189 189 188 188 182 172 168 164 159 156 154 151 149 148 146 144 143 142 140 138 136 135 131 125 121 121 120 116 114 112 111 107 100 94 89 87 86 85 82 83 86 86 85 85 86 84 83 81 77 71 64 60 56 52 47 45 41 35 32 26 23 21 14
240 251 249 211 191 186 199 223 259 276 288 297 301 303 304 304 314 350 359 354 323 312 327 344 353 351 337 337 322 313 26 28 157 173 185 186 180 179 180 172 166 164 160 158 156 153 152 151 148 145 145 144 142 139 136 132 127 121 119 120 119 117 117 117 116 113 106 99 93 89 88 89 86 81 82 86 86 85 87 87 83 77 73 69 62 56 50 43 38 38 36 28 20 19 20 15 6
235 252 251 216 190 188 206 208 228 257 277 288 291 298 299 300 309 333 352 357 328 306 320 340 341 338 329 326 311 284 273 258 192 177 182 181 176 174 175 170 166 165 162 160 157 155 155 154 151 149 148 147 143 139 135 130 125 121 120 120 120 121 123 123 121 119 110 100 96 94 93 94 91 85 83 87 89 89 89 87 80 72 67 62 55 45 36 31 26 25 23 16 7 8 13 9 359
227 240 236 214 189 181 202 213 218 247 264 273 283 290 287 290 301 317 336 355 344 308 314 331 332 330 323 318 305 285 250 261 215 186 185 179 176 174 171 169 167 165 163 161 159 158 158 157 154 152 151 148 144 139 133 129 125 124 122 122 122 123 126 125 123 119 112 105 103 103 102 100 98 93 91 90 88 85 83 79 75 69 58 50 44 31 19 15 11 11 10 4 356 354 358 357 351
223 225 221 214 193 180 196 200 196 227 248 261 276 284 280 285 292 300 310 315 328 302 304 318 324 323 317 310 300 289 275 274 212 188 189 180 174 173 170 168 167 166 165 163 162 163 162 160 158 156 154 150 146 140 135 131 130 129 126 125 125 125 126 125 125 123 118 115 111 109 109 107 106 104 99 93 86 78 71 67 67 63 48 35 29 17 4 358 355 358 358 353 348 342 341 341 338
229 223 221 218 195 186 199 196 184 206 235 251 266 279 283 288 290 296 301 292 278 273 281 295 306 315 308 297 288 282 290 277 180 178 186 179 171 170 170 169 169 169 168 166 166 166 165 164 162 160 158 154 149 143 139 136 135 133 131 130 129 127 128 127 131 133 127 124 119 116 116 112 110 106 96 88 76 64 53 46 47 44 29 15 8 1 353 345 343 348 347 343 339 334 331 329 327
230 227 231 213 180 177 194 196 188 203 228 243 253 269 281 291 295 299 301 291 272 249 255 274 285 298 295 289 277 262 275 239 158 157 172 176 171 169 170 171 172 171 171 171 170 170 169 167 166 165 163 159 153 148 144 142 139 138 136 136 135 134 134 133 136 138 135 130 123 118 116 112 106 92 77 70 60 47 35 25 20 15 4 355 352 350 343 338 337 337 336 333 330 327 324 322 322
227 227 226 204 185 177 179 184 193 210 228 241 251 266 284 300 301 298 304 307 287 248 242 260 272 284 283 285 271 242 243 231 168 155 164 172 172 171 172 173 175 175 175 175 174 175 174 171 170 169 167 164 159 155 151 146 142 141 140 139 136 137 142 145 140 136 137 133 123 115 110 105 91 72 57 50 41 26 14 3 358 355 347 341 343 342 336 333 333 331 330 329 326 323 321 322 321
228 225 213 209 208 194 176 172 182 207 232 250 264 276 292 305 302 297 303 310 298 271 255 258 266 277 276 276 267 242 233 228 191 165 165 168 171 174 176 177 178 178 179 180 179 180 179 176 175 173 172 169 165 161 156 149 144 143 142 141 139 143 150 158 152 136 135 134 122 111 103 92 76 56 38 25 12 1 352 345 344 342 334 332 336 335 332 332 332 332 331 329 327 327 328 327 324
226 221 211 211 210 198 185 178 177 196 227 249 269 282 291 299 300 296 302 307 300 285 280 268 258 263 270 265 256 244 234 224 210 179 167 167 170 174 177 180 182 183 183 184 185 185 184 181 178 178 178 176 173 167 162 156 150 148 150 150 149 153 157 161 159 134 126 125 112 98 84 73 58 36 16 358 348 342 337 334 334 330 326 328 331 332 331 332 335 336 335 333 332 334 334 331 329
221 219 211 207 208 206 198 185 181 204 229 247 268 282 289 296 296 290 294 301 297 286 286 277 250 251 264 264 249 237 231 220 209 190 175 170 171 175 178 182 184 186 187 187 191 192 189 187 185 186 185 185 185 179 173 170 165 164 163 164 162 161 164 164 158 131 118 112 97 82 63 50 31 8 354 342 334 331 328 326 326 325 327 330 332 333 333 336 341 344 344 344 342 339 338 335 333
219 219 212 208 211 206 192 174 177 209 237 255 270 279 285 292 290 282 282 287 293 290 276 262 245 241 252 260 249 235 226 215 204 196 188 179 177 180 182 185 185 186 189 192 198 199 196 195 194 194 195 197 198 192 187 183 180 180 178 178 176 173 173 169 164 145 121 109 92 71 41 21 2 345 339 333 329 327 324 323 326 329 333 337 338 338 340 344 348 349 348 347 343 339 337 335 333
216 217 213 208 201 192 182 171 176 199 226 245 257 268 279 287 286 279 277 283 299 300 274 260 254 239 241 251 249 238 221 207 202 198 196 190 185 185 186 191 192 192 194 198 205 206 206 207 206 205 204 207 209 207 203 196 193 196 196 195 193 189 187 183 183 174 145 130 75 32 360 349 342 333 331 330 327 325 323 327 334 337 339 343 345 346 346 348 348 345 343 341 338 335 334 333 332
213 214 212 200 190 192 182 171 179 198 218 237 248 264 277 281 281 278 279 289 303 307 291 278 270 242 230 238 245 243 228 213 206 203 200 197 192 189 190 196 201 202 202 204 208 212 215 219 221 220 217 216 217 219 216 208 207 210 212 212 210 206 202 197 199 200 194 212 302 334 331 332 330 328 329 328 327 328 328 333 340 340 342 345 348 351 349 347 344 340 339 337 334 332 333 334 334
214 213 211 195 189 199 187 173 186 199 208 225 237 256 269 270 273 278 284 291 299 305 297 284 275 251 228 232 242 243 239 227 212 204 203 202 199 196 195 198 203 205 205 206 208 212 220 225 230 235 235 228 223 225 224 218 217 220 222 224 224 221 216 211 212 221 235 254 291 313 319 323 323 324 327 328 331 334 334 337 338 336 341 345 349 351 347 343 339 336 335 333 332 333 334 335 333
217 214 212 195 188 197 193 182 193 198 202 217 230 245 259 265 270 277 282 287 293 295 291 287 278 261 233 229 234 234 239 237 220 202 198 205 209 208 204 200 202 206 208 208 207 210 217 223 227 233 238 236 229 226 227 226 224 224 227 231 234 231 225 222 222 234 253 275 297 309 313 313 315 320 324 329 333 336 335 334 332 334 341 346 347 347 343 339 336 332 331 331 332 334 335 333 330
220 214 211 199 190 197 199 188 195 200 197 213 234 246 254 261 265 271 277 283 289 285 286 295 288 271 245 226 227 229 235 239 228 204 193 202 215 219 217 210 209 214 217 218 215 214 214 217 220 223 229 237 236 229 227 231 232 228 229 234 237 235 230 229 232 244 260 279 297 303 306 309 311 315 321 326 330 331 330 329 332 336 341 344 343 341 338 335 333 332 330 331 333 334 332 329 326
220 209 211 205 195 199 199 190 197 204 196 208 237 247 248 255 261 269 275 280 282 278 285 308 300 281 258 232 228 228 230 235 233 217 201 200 210 221 222 217 218 224 228 230 228 224 220 220 222 223 227 234 239 235 226 228 233 232 231 235 237 236 232 230 238 250 262 277 292 297 303 307 308 312 317 319 320 322 323 328 333 335 337 339 338 336 334 335 335 336 334 333 333 333 330 326 326
217 205 212 208 200 198 194 193 199 205 205 209 224 237 243 252 260 266 269 271 272 271 288 310 301 283 265 247 245 238 230 232 231 225 215 204 206 218 222 219 220 225 229 230 231 234 235 234 234 234 234 235 238 238 228 224 228 230 232 234 237 238 233 232 239 251 263 273 284 292 299 304 306 308 311 310 309 311 319 327 330 330 332 335 335 333 335 337 340 341 338 335 334 331 327 324 326
215 207 213 206 201 197 191 196 201 205 214 214 215 228 241 249 255 258 259 261 264 272 290 300 292 283 270 253 254 249 240 238 234 229 226 219 214 219 223 222 221 221 224 229 236 242 246 249 248 247 246 245 245 243 237 228 224 226 230 233 236 238 236 237 242 249 260 270 278 287 293 298 301 304 304 301 299 303 312 321 324 325 330 333 333 334 336 338 340 341 338 334 331 328 324 324 327
216 210 213 205 200 197 195 200 203 209 217 217 213 223 237 244 246 249 251 252 260 274 284 285 284 284 277 260 254 251 246 244 241 234 229 229 228 224 223 223 223 221 222 229 236 240 244 247 250 251 252 253 252 250 247 239 229 226 229 234 237 237 235 237 243 247 255 264 273 281 288 292 295 296 296 292 290 295 305 315 321 325 329 331 331 333 334 336 337 337 334 332 331 329 328 328 330
217 212 214 209 203 201 201 203 203 210 218 218 213 216 229 237 239 241 246 250 257 269 272 271 273 278 279 267 255 250 245 241 242 239 232 230 232 231 227 227 228 227 227 232 235 239 242 243 246 250 252 252 252 253 253 249 240 233 232 235 238 238 236 235 241 246 251 259 268 275 283 288 290 291 290 286 283 288 301 313 320 323 326 327 329 330 332 334 335 334 333 334 335 334 333 333 334
221 214 214 214 209 206 208 207 207 213 219 220 214 212 224 236 240 239 243 249 254 260 260 256 259 267 273 267 254 248 243 239 241 242 237 231 231 234 232 233 235 233 234 237 240 242 243 243 244 247 250 249 248 249 252 252 247 241 238 238 239 239 239 239 241 245 249 255 263 269 277 284 286 287 286 282 280 285 299 312 317 320 322 324 327 330 332 333 333 334 335 336 336 336 336 336 336
230 223 219 220 216 213 215 215 213 217 222 222 217 215 224 235 241 241 241 247 252 253 250 252 262 267 271 273 263 250 243 239 238 239 238 235 235 237 238 238 239 237 237 240 242 243 243 245 246 246 247 248 247 246 247 248 247 245 243 242 242 241 240 241 242 245 249 253 258 264 271 279 283 284 283 280 279 286 298 309 315 318 321 324 329 331 331 333 334 335 338 338 337 337 338 336 336
236 229 224 226 226 223 222 221 219 220 223 222 218 219 225 231 238 242 242 248 254 255 256 260 265 265 269 275 269 257 247 239 236 236 235 235 237 238 238 238 238 237 239 240 241 242 243 247 250 250 249 248 247 246 245 245 246 245 243 242 243 243 241 242 243 245 248 250 253 259 267 274 280 282 280 276 278 288 299 306 313 319 322 326 328 328 329 332 335 337 338 338 336 336 336 334 333
236 229 225 230 231 227 225 223 222 221 222 223 222 224 228 231 237 241 241 245 251 257 262 259 254 257 262 265 266 264 255 243 238 236 234 234 236 237 237 237 235 236 239 240 242 245 246 249 252 254 254 251 249 247 244 243 244 244 244 242 243 245 244 243 244 245 246 248 251 256 262 269 275 278 276 273 276 287 297 304 312 320 324 325 325 325 327 330 333 336 336 335 334 333 333 333 331
237 232 232 236 234 229 228 227 225 223 224 228 228 229 232 233 236 238 236 239 244 252 257 252 245 249 253 254 260 268 267 253 243 237 235 234 234 235 237 237 234 235 238 240 244 248 250 251 253 255 255 252 248 244 242 240 240 243 243 242 243 245 246 245 244 245 246 248 250 253 258 266 270 271 271 271 274 284 293 302 311 319 322 322 320 322 325 328 330 332 332 331 331 331 331 332 331
237 236 236 237 232 228 230 230 229 227 230 234 234 233 235 234 235 237 236 237 241 249 249 241 239 247 252 253 259 267 271 257 244 238 235 231 230 234 238 238 234 235 238 239 244 249 251 252 254 254 253 250 245 242 240 239 238 239 240 241 242 243 245 246 246 248 249 249 249 251 256 262 264 265 265 267 273 281 290 299 307 313 316 315 316 319 323 327 328 329 329 329 329 330 331 332 332
235 238 237 235 233 230 230 231 231 230 234 238 238 236 236 236 237 238 236 233 236 245 243 236 239 249 256 260 266 274 271 251 242 240 236 231 232 236 239 237 234 234 238 241 245 251 256 258 258 256 253 250 248 246 244 242 241 240 240 240 241 243 245 247 248 248 248 248 247 249 252 257 259 257 257 262 271 281 290 298 304 307 309 309 313 319 323 327 328 328 329 330 331 332 332 333 332
230 231 231 231 233 236 236 239 241 238 237 241 243 241 239 239 239 238 237 233 231 239 240 238 245 253 258 264 273 282 279 257 244 246 242 237 238 240 239 234 231 232 236 240 244 251 259 263 262 260 257 254 252 250 247 244 241 239 239 239 240 243 244 245 246 245 245 246 246 246 249 252 251 246 247 256 267 279 288 295 301 303 305 308 313 320 324 326 328 330 333 335 336 336 335 335 333
230 230 232 231 231 233 235 240 244 243 242 242 244 246 246 244 240 237 238 238 231 233 236 239 249 255 252 259 267 274 282 273 251 248 245 238 236 239 237 230 226 228 231 233 238 246 255 262 266 263 260 257 253 251 248 245 241 238 238 238 238 239 239 239 241 240 240 241 242 243 244 245 241 237 240 250 262 274 282 290 297 300 304 310 315 320 324 326 328 332 336 339 341 341 339 337 335
234 234 237 239 237 235 236 239 240 241 243 243 242 247 249 247 242 235 235 236 229 226 230 234 244 250 250 256 260 260 271 270 247 241 245 243 240 241 239 233 229 227 229 231 235 242 251 261 266 264 260 256 252 251 249 246 243 239 237 236 234 233 233 232 233 235 235 235 237 237 235 233 232 233 238 246 258 269 275 282 289 297 305 311 316 319 322 325 328 331 335 339 342 343 340 337 336